"TOA5","MOW","CPU:UNC_MeetingWaters","DataHourly"
"TIMESTAMP","SondeTempC","SpCond","DOSat","DOmg","pH","Turb","BattVolt_Min"
"TS","","","","","","",""
"","Smp","Smp","Smp","Smp","Smp","Smp","Min"
"2006-08-01 00:00:00",24.3199996948,0.00300000002608,98.3000030518,8.22999954224,7.78000020981,28.3999996185,12.8500003815
"2006-08-01 01:00:00",24.1499996185,0.00400000018999,98.3000030518,8.25,7.82000017166,26.8999996185,12.8199996948
"2006-08-01 02:00:00",23.8400001526,0.00400000018999,98.1999969482,8.28999996185,7.80999994278,33.7000007629,12.8199996948
"2006-08-01 03:00:00",23.7900009155,0.00400000018999,98.1999969482,8.30000019073,7.84999990463,35.0,12.8000001907
"2006-08-01 04:00:00",23.4500007629,0.00400000018999,98.0999984741,8.34000015259,7.84999990463,38.0999984741,12.779999733
"2006-08-01 05:00:00",23.2999992371,0.00499999988824,98.0999984741,8.36999988556,7.88000011444,34.2999992371,12.7600002289
"2006-08-01 06:00:00",23.2299995422,0.00499999988824,98.1999969482,8.39000034332,7.98000001907,28.8999996185,12.7399997711
"2006-08-01 07:00:00",23.1399993896,0.00499999988824,98.1999969482,8.39999961853,7.98000001907,24.7999992371,12.7399997711
"2006-08-01 08:00:00",23.4400005341,0.00600000005215,98.4000015259,8.36999988556,7.98000001907,23.1000003815,12.7399997711
"2006-08-01 09:00:00",24.1299991608,0.00600000005215,98.8000030518,8.28999996185,7.96000003815,23.1000003815,12.779999733
"2006-08-01 10:00:00",25.5,0.00600000005215,99.1999969482,8.13000011444,7.90999984741,21.6000003815,12.9200000763
"2006-08-01 11:00:00",26.3600006104,0.00700000021607,99.6999969482,8.03999996185,7.78999996185,21.0,13.3999996185
"2006-08-01 12:00:00",28.9200000763,0.00600000005215,99.6999969482,7.67999982834,7.59000015259,27.5,13.5699996948
"2006-08-01 13:00:00",29.3199996948,0.00400000018999,114.5,8.76000022888,6.55000019073,55.9000015259,13.6999998093
"2006-08-01 14:00:00",30.2700004578,0.00200000009499,98.0999984741,7.38000011444,6.71999979019,47.2999992371,13.6700000763
"2006-08-01 15:00:00",30.5900001526,0.00200000009499,98.6999969482,7.38999986649,6.51999998093,47.5999984741,13.6300001144
"2006-08-01 16:00:00",28.9699993134,0.0010000000475,98.5999984741,7.59000015259,5.94000005722,42.9000015259,13.6400003433
"2006-08-01 17:00:00",28.4400005341,0.0010000000475,98.5,7.65000009537,7.03000020981,35.2000007629,13.6999998093
"2006-08-01 18:00:00",28.0699996948,0.00200000009499,98.6999969482,7.71000003815,7.09000015259,35.2999992371,13.0399999619
"2006-08-01 19:00:00",27.6100006104,0.00200000009499,98.5999984741,7.76999998093,7.23999977112,30.2000007629,12.9799995422
"2006-08-01 20:00:00",26.8199996948,0.00200000009499,98.5,7.88000011444,7.28000020981,29.2000007629,12.9499998093
"2006-08-01 21:00:00",26.0200004578,0.00200000009499,98.3000030518,7.96999979019,7.38000011444,32.5,12.8999996185
"2006-08-01 22:00:00",25.5499992371,0.00300000002608,98.3000030518,8.03999996185,7.44999980927,27.5,12.8900003433
"2006-08-01 23:00:00",25.25,0.00300000002608,98.1999969482,8.07999992371,7.51000022888,29.6000003815,12.8699998856
"2006-08-02 00:00:00",25.0300006866,0.00300000002608,98.0999984741,8.10999965668,7.57000017166,30.8999996185,12.8500003815
"2006-08-02 01:00:00",24.7900009155,0.00300000002608,98.0999984741,8.14000034332,7.59999990463,32.5,12.8400001526
"2006-08-02 02:00:00",24.5599994659,0.00300000002608,97.9000015259,8.15999984741,7.61000013351,27.3999996185,12.8199996948
"2006-08-02 03:00:00",24.3199996948,0.00400000018999,98.0,8.19999980927,7.63999986649,23.6000003815,12.8000001907
"2006-08-02 04:00:00",24.2299995422,0.00400000018999,97.8000030518,8.19999980927,7.67000007629,26.5,12.7899999619
"2006-08-02 05:00:00",24.0200004578,0.00400000018999,97.8000030518,8.22999954224,7.69999980927,23.6000003815,12.7700004578
"2006-08-02 06:00:00",23.8600006104,0.00400000018999,97.9000015259,8.27000045776,7.73999977112,28.6000003815,12.7600002289
"2006-08-02 07:00:00",23.8199996948,0.00400000018999,98.0999984741,8.28999996185,7.80000019073,119.5,12.7399997711
"2006-08-02 08:00:00",24.0599994659,0.00499999988824,98.1999969482,8.26000022888,7.80000019073,144.0,12.7399997711
"2006-08-02 09:00:00",24.6399993896,0.00499999988824,98.5,8.19999980927,7.80000019073,21.2000007629,12.779999733
"2006-08-02 10:00:00",25.6299991608,0.00499999988824,99.0,8.09000015259,7.76000022888,86.0999984741,12.8800001144
"2006-08-02 11:00:00",26.7099990845,0.00499999988824,99.3000030518,7.96000003815,7.61999988556,20.0,13.3900003433
"2006-08-02 12:00:00",29.3899993896,0.00400000018999,99.9000015259,7.63000011444,7.17999982834,53.9000015259,13.529999733
"2006-08-02 13:00:00",30.9699993134,0.00200000009499,99.0999984741,7.36999988556,7.03999996185,140.899993896,13.6800003052
"2006-08-02 14:00:00",32.6500015259,0.0010000000475,99.4000015259,7.17999982834,5.73000001907,103.900001526,13.6700000763
"2006-08-02 15:00:00",32.4300003052,0.0,136.899993896,9.93000030518,6.23999977112,150.100006104,13.6300001144
"2006-08-02 16:00:00",28.7600002289,0.0010000000475,97.6999969482,7.55000019073,7.19000005722,107.900001526,13.6099996567
"2006-08-02 17:00:00",28.2099990845,0.0010000000475,98.1999969482,7.65999984741,7.30000019073,79.6999969482,13.3900003433
"2006-08-02 18:00:00",27.6299991608,0.0010000000475,98.3000030518,7.75,7.46999979019,116.0,13.029999733
"2006-08-02 19:00:00",27.4799995422,0.00200000009499,98.5,7.78000020981,7.5,121.199996948,12.970000267
"2006-08-02 20:00:00",26.7000007629,0.00200000009499,98.5,7.88999986649,7.51999998093,95.1999969482,12.9499998093
"2006-08-02 21:00:00",26.1399993896,0.00200000009499,98.4000015259,7.96000003815,7.59999990463,92.3000030518,12.9300003052
"2006-08-02 22:00:00",25.7800006866,0.00300000002608,98.4000015259,8.02000045776,7.67000007629,70.9000015259,12.8999996185
"2006-08-02 23:00:00",25.3700008392,0.00300000002608,98.3000030518,8.06999969482,7.69999980927,64.8000030518,12.8699998856
"2006-08-03 00:00:00",25.0200004578,0.00300000002608,98.1999969482,8.10999965668,7.73000001907,54.0,12.8599996567
"2006-08-03 01:00:00",24.6599998474,0.00300000002608,98.0,8.14999961853,7.75,46.5999984741,12.8400001526
"2006-08-03 02:00:00",24.5100002289,0.00300000002608,98.0,8.18000030518,7.80000019073,39.7000007629,12.8199996948
"2006-08-03 03:00:00",24.1800003052,0.00400000018999,98.0,8.22000026703,7.80999994278,36.9000015259,12.8100004196
"2006-08-03 04:00:00",24.0200004578,0.00400000018999,97.9000015259,8.23999977112,7.82999992371,34.9000015259,12.8000001907
"2006-08-03 05:00:00",24.0200004578,0.00400000018999,98.0,8.23999977112,7.86999988556,43.2999992371,12.779999733
"2006-08-03 06:00:00",23.7800006866,0.00400000018999,98.0,8.27999973297,7.88999986649,34.5999984741,12.7600002289
"2006-08-03 07:00:00",23.7399997711,0.00499999988824,98.0,8.28999996185,7.90999984741,33.7999992371,12.7399997711
"2006-08-03 08:00:00",24.0699996948,0.00499999988824,98.1999969482,8.26000022888,7.90999984741,26.2999992371,12.75
"2006-08-03 09:00:00",24.6700000763,0.00499999988824,98.4000015259,8.18999958038,7.86999988556,25.0,12.779999733
"2006-08-03 10:00:00",25.6000003815,0.00499999988824,98.8000030518,8.07999992371,7.82999992371,22.6000003815,12.9099998474
"2006-08-03 11:00:00",26.5300006866,0.00499999988824,99.1999969482,7.96999979019,7.69000005722,21.6000003815,13.3900003433
"2006-08-03 12:00:00",28.6800003052,0.00400000018999,99.5,7.69999980927,7.42000007629,23.2999992371,13.529999733
"2006-08-03 13:00:00",30.0499992371,0.00300000002608,99.0,7.46999979019,6.94000005722,31.5,13.6700000763
"2006-08-03 14:00:00",31.2600002289,0.00200000009499,98.4000015259,7.28000020981,6.75,30.5,13.6599998474
"2006-08-03 15:00:00",30.5799999237,0.0010000000475,98.3000030518,7.36000013351,6.26000022888,29.2999992371,13.0500001907
"2006-08-03 16:00:00",29.5,0.0010000000475,98.1999969482,7.48999977112,6.65000009537,29.2999992371,12.9899997711
"2006-08-03 17:00:00",28.75,0.0010000000475,98.3000030518,7.59000015259,6.28000020981,27.3999996185,12.970000267
"2006-08-03 18:00:00",26.2399997711,0.0689999982715,95.5,7.71000003815,8.65999984741,117.099998474,12.9499998093
"2006-08-03 19:00:00",25.4599990845,0.0480000004172,88.0,7.21000003815,9.32999992371,234.5,12.9099998474
"2006-08-03 20:00:00",27.1200008392,0.400999993086,95.8000030518,7.61000013351,9.97000026703,1403.0,12.8900003433
"2006-08-03 21:00:00",27.1299991608,0.168999999762,90.6999969482,7.21000003815,9.53999996185,722.0,12.8599996567
"2006-08-03 22:00:00",26.4500007629,0.148000001907,87.9000015259,7.07000017166,9.22000026703,317.799987793,12.8400001526
"2006-08-03 23:00:00",25.9300003052,0.0309999994934,81.8000030518,6.65000009537,9.09000015259,298.799987793,12.8299999237
"2006-08-04 00:00:00",25.0699996948,0.0309999994934,84.6999969482,6.98999977112,9.21000003815,412.200012207,12.8199996948
"2006-08-04 01:00:00",24.7700004578,0.0320000015199,87.9000015259,7.30000019073,9.17000007629,231.899993896,12.8000001907
"2006-08-04 02:00:00",24.7700004578,0.0320000015199,87.3000030518,7.25,9.13000011444,109.199996948,12.7899999619
"2006-08-04 03:00:00",24.6200008392,0.0320000015199,87.6999969482,7.30000019073,9.11999988556,78.1999969482,12.7700004578
"2006-08-04 04:00:00",24.1200008392,0.0329999998212,98.3000030518,8.25,9.10000038147,30.6000003815,12.7600002289
"2006-08-04 05:00:00",24.1100006104,0.0329999998212,98.5999984741,8.27999973297,9.06000041962,23.1000003815,12.7399997711
"2006-08-04 06:00:00",23.75,0.0329999998212,99.0,8.36999988556,9.02999973297,20.5,12.7399997711
"2006-08-04 07:00:00",23.9699993134,0.0329999998212,97.6999969482,8.22999954224,9.02999973297,19.7000007629,12.720000267
"2006-08-04 08:00:00",24.1100006104,0.0329999998212,98.9000015259,8.31000041962,9.01000022888,21.8999996185,12.720000267
"2006-08-04 09:00:00",24.7000007629,0.0340000018477,99.3000030518,8.25,9.0,20.2000007629,12.7600002289
"2006-08-04 10:00:00",25.1000003815,0.0340000018477,99.5,8.21000003815,9.02000045776,17.8999996185,12.8699998856
"2006-08-04 11:00:00",25.5200004578,0.0340000018477,96.9000015259,7.92999982834,9.02999973297,16.6000003815,13.4200000763
"2006-08-04 12:00:00",27.4500007629,0.0320000015199,99.4000015259,7.86000013351,8.89000034332,17.2999992371,13.6700000763
"2006-08-04 13:00:00",27.8299999237,0.0270000007004,100.800003052,7.92000007629,8.67000007629,16.0,13.720000267
"2006-08-04 14:00:00",29.2000007629,0.019999999553,100.599998474,7.71000003815,8.11999988556,16.2999992371,13.6700000763
"2006-08-04 15:00:00",29.0200004578,0.01600000076,100.699996948,7.73999977112,6.51000022888,43.9000015259,13.1099996567
"2006-08-04 16:00:00",29.2000007629,0.0130000002682,99.4000015259,7.61999988556,7.01000022888,32.5,12.9899997711
"2006-08-04 17:00:00",29.1800003052,0.0109999999404,98.5999984741,7.55999994278,6.65999984741,22.5,12.970000267
"2006-08-04 18:00:00",28.3899993896,0.0109999999404,98.8000030518,7.67999982834,6.80999994278,17.6000003815,12.9799995422
"2006-08-04 19:00:00",27.5599994659,0.0109999999404,98.5,7.76999998093,7.34000015259,15.8999996185,12.9399995804
"2006-08-04 20:00:00",26.7199993134,0.0109999999404,98.0999984741,7.84999990463,7.44999980927,14.8000001907,12.9099998474
"2006-08-04 21:00:00",26.2199993134,0.0109999999404,98.0,7.92000007629,7.53000020981,14.3000001907,12.8900003433
"2006-08-04 22:00:00",25.8899993896,0.0109999999404,98.0,7.96999979019,7.57999992371,15.6999998093,12.8599996567
"2006-08-04 23:00:00",26.0400009155,0.0109999999404,98.0999984741,7.94999980927,7.57000017166,30.2999992371,12.8400001526
"2006-08-05 00:00:00",25.5799999237,0.0109999999404,97.8000030518,8.0,7.61999988556,18.2999992371,12.8299999237
"2006-08-05 01:00:00",25.2600002289,0.00999999977648,97.6999969482,8.02999973297,7.61999988556,16.5,12.8199996948
"2006-08-05 02:00:00",24.7900009155,0.00999999977648,97.5,8.09000015259,7.65999984741,15.8999996185,12.8000001907
"2006-08-05 03:00:00",24.6599998474,0.00999999977648,97.3000030518,8.09000015259,7.67999982834,14.0,12.7899999619
"2006-08-05 04:00:00",24.3099994659,0.00999999977648,97.3000030518,8.14000034332,7.69999980927,14.3999996185,12.779999733
"2006-08-05 05:00:00",24.0499992371,0.00999999977648,97.1999969482,8.17000007629,7.71000003815,15.0,12.7600002289
"2006-08-05 06:00:00",23.8400001526,0.00899999961257,97.1999969482,8.19999980927,7.76000022888,16.7999992371,12.7399997711
"2006-08-05 07:00:00",23.9099998474,0.00899999961257,96.6999969482,8.15999984741,7.82999992371,14.3999996185,12.720000267
"2006-08-05 08:00:00",23.9200000763,0.00899999961257,92.4000015259,7.78999996185,7.92000007629,14.3000001907,12.7399997711
"2006-08-05 09:00:00",23.9099998474,0.00899999961257,96.6999969482,8.14999961853,7.90999984741,14.3000001907,12.7399997711
"2006-08-05 10:00:00",24.3899993896,0.00899999961257,93.3000030518,7.80000019073,7.92999982834,12.3000001907,12.9300003052
"2006-08-05 11:00:00",24.7199993134,0.00899999961257,97.3000030518,8.07999992371,7.94000005722,14.0,13.0699996948
"2006-08-05 12:00:00",25.0499992371,0.00899999961257,97.9000015259,8.07999992371,7.84000015259,17.2000007629,13.220000267
"2006-08-05 13:00:00",26.2900009155,0.00800000037998,98.5999984741,7.96000003815,7.84999990463,18.2000007629,13.3000001907
"2006-08-05 14:00:00",26.6100006104,0.00800000037998,98.4000015259,7.90000009537,7.67999982834,15.8000001907,13.529999733
"2006-08-05 15:00:00",27.1499996185,0.00700000021607,98.1999969482,7.80000019073,7.17999982834,15.1999998093,13.4399995804
"2006-08-05 16:00:00",26.3600006104,0.00600000005215,97.9000015259,7.90000009537,7.34999990463,14.1000003815,13.7899999619
"2006-08-05 17:00:00",25.9599990845,0.00499999988824,98.0,7.96000003815,7.51000022888,12.8999996185,13.2600002289
"2006-08-05 18:00:00",25.9099998474,0.00499999988824,98.0999984741,7.96999979019,7.67999982834,12.1000003815,13.0500001907
"2006-08-05 19:00:00",25.6900005341,0.00499999988824,98.0999984741,8.0,7.65999984741,11.5,12.9600000381
"2006-08-05 20:00:00",25.4400005341,0.00499999988824,97.8000030518,8.02000045776,7.71999979019,10.8999996185,12.9499998093
"2006-08-05 21:00:00",24.9899997711,0.00400000018999,97.3000030518,8.05000019073,7.53000020981,13.1999998093,12.9300003052
"2006-08-05 22:00:00",24.5100002289,0.00400000018999,97.1999969482,8.10000038147,7.73000001907,12.5,12.8599996567
"2006-08-05 23:00:00",24.2700004578,0.00400000018999,97.1999969482,8.14000034332,7.78000020981,13.1999998093,12.8800001144
"2006-08-06 00:00:00",24.2099990845,0.00400000018999,97.4000015259,8.17000007629,7.82000017166,13.6999998093,12.8400001526
"2006-08-06 01:00:00",23.5599994659,0.00400000018999,97.1999969482,8.25,7.88000011444,13.5,12.8100004196
"2006-08-06 02:00:00",23.1900005341,0.00400000018999,97.1999969482,8.31000041962,7.92999982834,13.8999996185,12.779999733
"2006-08-06 03:00:00",23.2900009155,0.00400000018999,97.0,8.27999973297,7.98000001907,13.6999998093,12.8000001907
"2006-08-06 04:00:00",23.2900009155,0.00400000018999,97.4000015259,8.31000041962,8.02999973297,13.1999998093,12.779999733
"2006-08-06 05:00:00",23.1900005341,0.00499999988824,97.3000030518,8.31999969482,8.03999996185,11.8999996185,12.7299995422
"2006-08-06 06:00:00",23.3299999237,0.00499999988824,97.5,8.31000041962,8.03999996185,12.8999996185,12.7299995422
"2006-08-06 07:00:00",23.3999996185,0.00499999988824,97.5999984741,8.31000041962,8.06000041962,11.3999996185,12.720000267
"2006-08-06 08:00:00",23.6100006104,0.00499999988824,97.9000015259,8.31000041962,8.06999969482,12.6000003815,12.7299995422
"2006-08-06 09:00:00",23.8999996185,0.00499999988824,98.0999984741,8.27999973297,8.06000041962,12.1999998093,12.7600002289
"2006-08-06 10:00:00",24.4300003052,0.00499999988824,98.3000030518,8.21000003815,8.02000045776,14.1000003815,12.9200000763
"2006-08-06 11:00:00",24.8899993896,0.00499999988824,98.4000015259,8.14999961853,7.92999982834,13.0,13.0900001526
"2006-08-06 12:00:00",25.2000007629,0.00499999988824,98.5,8.10999965668,7.84999990463,12.3999996185,13.1099996567
"2006-08-06 13:00:00",27.0699996948,0.00499999988824,100.400001526,7.98999977112,7.53000020981,11.8999996185,13.529999733
"2006-08-06 14:00:00",28.8700008392,0.00300000002608,98.6999969482,7.61000013351,5.75,11.8999996185,13.6700000763
"2006-08-06 15:00:00",28.5699996948,0.00200000009499,99.0999984741,7.67999982834,6.90999984741,12.6999998093,13.3599996567
"2006-08-06 16:00:00",27.3600006104,0.0010000000475,98.3000030518,7.78000020981,7.28999996185,16.8999996185,13.5100002289
"2006-08-06 17:00:00",26.8199996948,0.0010000000475,98.6999969482,7.88999986649,7.13000011444,19.2000007629,13.1800003052
"2006-08-06 18:00:00",26.6100006104,0.0010000000475,98.3000030518,7.88999986649,7.17999982834,19.7000007629,12.9799995422
"2006-08-06 19:00:00",26.1399993896,0.0010000000475,98.0,7.92999982834,7.51999998093,18.7999992371,12.9499998093
"2006-08-06 20:00:00",25.4300003052,0.0010000000475,97.9000015259,8.02999973297,7.61999988556,20.7999992371,12.9499998093
"2006-08-06 21:00:00",24.7000007629,0.0010000000475,97.5999984741,8.10999965668,7.65000009537,19.6000003815,12.9399995804
"2006-08-06 22:00:00",24.1399993896,0.00200000009499,97.4000015259,8.18000030518,7.69000005722,18.5,12.9099998474
"2006-08-06 23:00:00",23.8199996948,0.00200000009499,97.1999969482,8.21000003815,7.73000001907,14.0,12.8599996567
"2006-08-07 00:00:00",23.4699993134,0.00200000009499,97.0999984741,8.25,7.76000022888,15.6000003815,12.8400001526
"2006-08-07 01:00:00",23.2800006866,0.00200000009499,97.0,8.27000045776,7.75,14.6999998093,12.8199996948
"2006-08-07 02:00:00",23.0200004578,0.00200000009499,96.6999969482,8.28999996185,7.76999998093,14.3999996185,12.8299999237
"2006-08-07 03:00:00",22.8400001526,0.00200000009499,96.8000030518,8.32999992371,7.73000001907,23.3999996185,12.8199996948
"2006-08-07 04:00:00",22.9099998474,0.00200000009499,96.6999969482,8.31000041962,7.76999998093,23.0,12.8000001907
"2006-08-07 05:00:00",22.7900009155,0.00200000009499,96.8000030518,8.32999992371,7.86999988556,30.7999992371,12.7600002289
"2006-08-07 06:00:00",22.8099994659,0.00300000002608,97.0,8.35000038147,7.96000003815,26.0,12.7600002289
"2006-08-07 07:00:00",22.9400005341,0.00300000002608,96.9000015259,8.31999969482,7.96999979019,25.3999996185,12.6999998093
"2006-08-07 08:00:00",23.4099998474,0.00300000002608,92.9000015259,7.90999984741,8.02000045776,24.1000003815,12.7299995422
"2006-08-07 09:00:00",23.8799991608,0.00300000002608,96.9000015259,8.18000030518,8.02000045776,19.1000003815,12.8100004196
"2006-08-07 10:00:00",24.5400009155,0.00400000018999,97.5999984741,8.14000034332,8.01000022888,17.2000007629,12.9399995804
"2006-08-07 11:00:00",25.4200000763,0.00400000018999,98.1999969482,8.05000019073,7.92999982834,17.2999992371,13.3699998856
"2006-08-07 12:00:00",27.6800003052,0.00300000002608,99.0999984741,7.80000019073,7.67000007629,17.1000003815,13.5
"2006-08-07 13:00:00",28.2600002289,0.00200000009499,98.9000015259,7.69999980927,7.34000015259,14.6000003815,13.4099998474
"2006-08-07 14:00:00",28.7700004578,0.00200000009499,97.6999969482,7.53999996185,7.30000019073,23.7999992371,13.7600002289
"2006-08-07 15:00:00",28.8799991608,0.0010000000475,98.0999984741,7.55999994278,7.09999990463,25.7000007629,13.3400001526
"2006-08-07 16:00:00",26.5499992371,0.0010000000475,97.8000030518,7.86000013351,7.34999990463,26.3999996185,13.8400001526
"2006-08-07 17:00:00",25.8199996948,0.00200000009499,98.3000030518,8.0,7.71000003815,20.7999992371,13.1499996185
"2006-08-07 18:00:00",25.2900009155,0.00200000009499,97.1999969482,7.98999977112,7.90999984741,20.0,12.9600000381
"2006-08-07 19:00:00",24.9200000763,0.00200000009499,97.3000030518,8.05000019073,7.96999979019,19.8999996185,12.9399995804
"2006-08-07 20:00:00",24.7600002289,0.00300000002608,97.3000030518,8.07999992371,7.98999977112,15.5,12.9300003052
"2006-08-07 21:00:00",24.4799995422,0.00300000002608,97.1999969482,8.10999965668,8.03999996185,18.8999996185,12.9099998474
"2006-08-07 22:00:00",24.2000007629,0.00300000002608,97.0999984741,8.14000034332,8.06000041962,21.5,12.8900003433
"2006-08-07 23:00:00",24.1499996185,0.00300000002608,97.0999984741,8.14999961853,8.10000038147,19.8999996185,12.8699998856
"2006-08-08 00:00:00",24.1499996185,0.00400000018999,97.3000030518,8.17000007629,8.11999988556,19.7999992371,12.8500003815
"2006-08-08 01:00:00",24.0499992371,0.00400000018999,97.1999969482,8.18000030518,8.13000011444,18.6000003815,12.8299999237
"2006-08-08 02:00:00",23.9500007629,0.00400000018999,97.0999984741,8.18000030518,8.13000011444,18.6000003815,12.8299999237
"2006-08-08 03:00:00",23.7000007629,0.00400000018999,97.0999984741,8.22000026703,8.13000011444,16.2000007629,12.8199996948
"2006-08-08 04:00:00",23.6399993896,0.00499999988824,97.0999984741,8.22999954224,8.15999984741,17.7999992371,12.8100004196
"2006-08-08 05:00:00",23.4400005341,0.00499999988824,97.0999984741,8.26000022888,8.17000007629,15.5,12.7899999619
"2006-08-08 06:00:00",23.1000003815,0.00499999988824,97.0,8.31000041962,8.18999958038,14.1999998093,12.779999733
"2006-08-08 07:00:00",23.1700000763,0.00600000005215,97.1999969482,8.31999969482,8.22000026703,13.8999996185,12.7600002289
"2006-08-08 08:00:00",23.3799991608,0.00600000005215,97.3000030518,8.28999996185,8.22000026703,14.1999998093,12.7600002289
"2006-08-08 09:00:00",24.0499992371,0.00700000021607,97.6999969482,8.22000026703,8.19999980927,13.8999996185,12.8000001907
"2006-08-08 10:00:00",24.9899997711,0.00800000037998,98.0,8.10000038147,8.11999988556,12.6999998093,12.9099998474
"2006-08-08 11:00:00",25.9699993134,0.00600000005215,97.9000015259,7.94999980927,7.82999992371,13.8000001907,13.4099998474
"2006-08-08 12:00:00",27.9300003052,0.00400000018999,98.9000015259,7.75,7.55999994278,13.3999996185,13.5500001907
"2006-08-08 13:00:00",29.8299999237,0.00200000009499,98.5,7.46999979019,6.67999982834,13.8999996185,13.75
"2006-08-08 14:00:00",31.4400005341,0.0010000000475,99.3000030518,7.32999992371,5.51000022888,14.5,13.720000267
"2006-08-08 15:00:00",30.8199996948,0.0,98.9000015259,7.36999988556,6.13999986649,12.3999996185,13.7100000381
"2006-08-08 16:00:00",28.2600002289,0.0010000000475,97.5999984741,7.61000013351,7.11999988556,15.6999998093,13.1199998856
"2006-08-08 17:00:00",27.1900005341,0.0010000000475,96.9000015259,7.69999980927,7.53999996185,16.7999992371,13.0200004578
"2006-08-08 18:00:00",27.1200008392,0.0010000000475,97.0,7.71000003815,7.46999979019,18.7000007629,13.0
"2006-08-08 19:00:00",26.4799995422,0.0010000000475,97.0,7.80999994278,7.67000007629,19.3999996185,12.9600000381
"2006-08-08 20:00:00",25.7000007629,0.00200000009499,97.0,7.90999984741,7.78000020981,19.1000003815,12.9300003052
"2006-08-08 21:00:00",24.9300003052,0.00200000009499,96.5999984741,7.98999977112,7.78999996185,17.2999992371,12.9099998474
"2006-08-08 22:00:00",24.5499992371,0.00200000009499,96.5999984741,8.05000019073,7.82000017166,15.0,12.8800001144
"2006-08-08 23:00:00",24.25,0.00200000009499,96.5,8.09000015259,7.86999988556,15.3000001907,12.8599996567
"2006-08-09 00:00:00",24.0400009155,0.00300000002608,96.5,8.10999965668,7.88999986649,14.8000001907,12.8400001526
"2006-08-09 01:00:00",23.8999996185,0.00300000002608,96.5999984741,8.14999961853,7.92000007629,12.8999996185,12.8199996948
"2006-08-09 02:00:00",23.7999992371,0.00300000002608,96.4000015259,8.14999961853,8.0,13.5,12.8100004196
"2006-08-09 03:00:00",23.4799995422,0.00300000002608,96.4000015259,8.19999980927,8.02999973297,12.6999998093,12.8000001907
"2006-08-09 04:00:00",23.3099994659,0.00400000018999,96.5,8.22999954224,8.06000041962,12.1999998093,12.7700004578
"2006-08-09 05:00:00",23.2299995422,0.00400000018999,96.5,8.23999977112,8.09000015259,12.6999998093,12.7600002289
"2006-08-09 06:00:00",23.1499996185,0.00400000018999,96.5,8.26000022888,8.10999965668,12.5,12.7299995422
"2006-08-09 07:00:00",23.3600006104,0.00499999988824,91.0,7.76000022888,8.84000015259,12.1000003815,12.7299995422
"2006-08-09 08:00:00",23.3400001526,0.00700000021607,96.6999969482,8.25,9.05000019073,13.6000003815,12.7100000381